www.pogodaiklimat.ru

Погода и климат >> Архив погоды >> Россия >> Московская область >> Сергиев Посад


ПОГОДА в Сергиевом Посаде

  • Прогноз погоды в Сергиевом Посаде
  • Монитор погоды в Сергиевом Посаде

АРХИВ ПОГОДЫ в Сергиевом Посаде

Время (UTC), дата Ветер
(напр.,м/с)
 
Видим.   Явления Облачность Т
(С)
Тd
(С)
f
(%)
Тe
(С)
Тes
(С)
Комфортность P
(гПа)
Po
(гПа)
Тmin
(С)
Tmax
(С)
R
(мм)
R24
(мм)
S
(см)
12 15.05 С 1 н/о н/о +20.6 +9.8 50 +23 +23 комфорт 1017.9 989.6
15 15.05 С 1 н/о н/о +19.3 +8.0 48 +21 +21 комфорт 1017.9 989.4
18 15.05 С 1 н/о н/о +15.7 +7.5 58 +16 +16 тепло 1019.6 990.8 +22.3
21 15.05 С 1 н/о н/о +11.9 +4.2 59 +12 +12 тепло 1021.1 991.8
00 16.05 СВ 1 н/о н/о +10.2 +2.5 59 +10 +10 тепло 1021.5 992.1
03 16.05 СВ 1 н/о н/о +7.9 +1.7 65 +7 +7 по сезону 1022.2 992.5 +7.8
06 16.05 СВ 1 н/о н/о +13.1 +2.2 48 +14 +14 тепло 1022.9 993.7 +7.7
09 16.05 С 1 н/о н/о +16.3 +0.7 35 +17 +17 тепло 1023.0 994.1
12 16.05 СЗ 3 н/о н/о +17.2 -0.5 30 +17 +17 по сезону 1023.4 994.5
15 16.05 С 1 н/о н/о +15.1 -4.3 26 +16 +16 тепло 1024.0 994.9
18 16.05 штиль 0 н/о н/о +10.7 -2.3 40 +11 +11 по сезону 1025.2 995.6 +17.7
21 16.05 С 1 н/о н/о +8.0 -1.3 52 +8 +8 по сезону 1026.2 996.4
00 17.05 штиль 0 н/о н/о +5.0 -1.0 65 +4 +4 прохладно 1026.7 996.6
03 17.05 штиль 0 н/о н/о +5.6 +1.0 72 +5 +5 прохладно 1027.3 997.1 +3.9
06 17.05 В 1 н/о н/о +14.0 -4.3 28 +15 +15 тепло 1026.3 997.0 +3.9
09 17.05 СЗ 2 н/о н/о +16.3 -3.3 26 +17 +17 тепло 1024.9 995.9
12 17.05 З 2 н/о н/о +18.3 -2.2 25 +19 +19 тепло 1022.8 994.1
15 17.05 СЗ 3 н/о н/о +18.1 -1.6 26 +18 +18 тепло 1021.3 992.6
18 17.05 ЮЗ 1 н/о н/о +13.0 +2.2 48 +13 +13 по сезону 1020.7 991.5 +19.1
21 17.05 З 1 н/о н/о +9.9 +2.0 58 +10 +10 по сезону 1020.7 991.3
00 18.05 З 1 н/о н/о +7.5 +1.8 67 +7 +7 по сезону 1020.8 991.1
03 18.05 З 1 н/о н/о +7.8 +2.5 69 +7 +7 по сезону 1021.2 991.4 +6.7
06 18.05 С 1 н/о н/о +16.0 +0.8 36 +17 +17 тепло 1020.0 991.1 +6.7
09 18.05 С 1 н/о н/о +17.9 +0.5 31 +19 +19 тепло 1019.5 990.9
12 18.05 С 2 н/о н/о +19.2 -1.8 24 +20 +20 тепло 1017.9 989.4
15 18.05 С 1 н/о н/о +19.3 +0.7 29 +21 +21 комфорт 1016.6 988.1
18 18.05 штиль 0 н/о н/о +13.9 +2.7 47 +14 +14 по сезону 1016.6 987.6 +19.7
21 18.05 З 2 н/о н/о +10.8 +2.7 57 +10 +10 по сезону 1016.7 987.4
00 19.05 штиль 0 н/о н/о +10.2 +2.7 60 +10 +10 тепло 1017.8 988.4
03 19.05 СЗ 1 н/о н/о +9.5 +2.5 62 +9 +9 по сезону 1018.3 988.9 +8.2
06 19.05 С 2 н/о н/о +14.4 +2.4 44 +14 +14 тепло 1018.1 989.2 +8.2
09 19.05 С 3 н/о н/о +17.6 -0.2 30 +18 +18 тепло 1017.8 989.1
12 19.05 С 2
{12}
н/о н/о +18.8 -0.2 28 +19 +19 тепло 1018.0 989.5
15 19.05 С 1
{12}
н/о н/о +18.3 +0.4 30 +19 +19 тепло 1018.1 989.5
18 19.05 штиль 0 н/о н/о +12.7 +0.5 43 +13 +13 по сезону 1019.7 990.5 +19.0
21 19.05 штиль 0 н/о н/о +6.9 +0.7 65 +6 +6 прохладно 1021.1 991.3
03 20.05 штиль 0 н/о н/о +7.5 +0.7 62 +7 +7 по сезону 1022.7 992.9 +3.8
06 20.05 СВ 1 н/о н/о +15.2 -1.3 32 +16 +16 тепло 1022.1 993.1 +3.8
09 20.05 СЗ 1 н/о н/о +18.3 -0.5 28 +19 +19 тепло 1021.4 992.7
12 20.05 СЗ 1 н/о н/о +19.9 -0.2 26 +21 +21 комфорт 1020.5 992.0
15 20.05 СЗ 2 н/о н/о +19.7 +0.2 27 +20 +20 тепло 1019.8 991.3
18 20.05 СВ 1 н/о н/о +14.4 +2.4 44 +15 +15 тепло 1020.5 991.5 +20.6
21 20.05 В 1 н/о н/о +10.4 +2.7 59 +10 +10 по сезону 1021.6 992.2
00 21.05 штиль 0 н/о н/о +8.8 +0.5 56 +8 +8 по сезону 1021.7 992.1
03 21.05 штиль 0 н/о н/о +9.8 +2.7 61 +9 +9 по сезону 1021.7 992.2 +7.8
09 21.05 Ю 2 н/о н/о +17.8 +2.5 36 +18 +18 тепло 1019.2 990.5
12 21.05 Ю 2 н/о н/о +21.0 +5.7 37 +23 +23 комфорт 1017.8 989.5
15 21.05 Ю 2 н/о н/о +20.8 +6.7 40 +22 +22 комфорт 1015.4 987.2

 

Местоположение метеостанции Сергиев Посад (Московская область, Россия): широта 56.33 долгота 38.13 высота над уровнем моря 242 м.

В архиве по умолчанию представлена погода в Сергиевом Посаде за последнюю неделю. Архивные данные за месяц целиком и за предыдущие месяцы, начиная с января 2011 года, Вы можете получить, выбрав интересующий диапазон дат из раскрывающегося списка и нажав кнопку "Ввод!".


*Определитесь, кто Вы:
робот инопланетянин человек

Внимание! Время в таблицах - всемирное. Для получения местного времени необходимо прибавить поправку, которая равна 3 ч.

Смотрите также архив погоды в соседних городах и на ближайших метеорологических станциях:

Погода в Дмитрове (Московская область, Россия) (35 км)
Погода в Пушкино (Московская область, Россия) (38 км)
Погода в Александрове (Владимирская область, Россия) (39 км)
Погода в Луговой (Московская область, Россия) (51 км)
Погода в Талдоме (Московская область, Россия) (57 км)
Погода в Долгопрудном (Московская область, Россия) (58 км)
Погода в Шереметьево (Московская область, Россия) (59 км)
Погода в Переславль-Залесском (Ярославская область, Россия) (60 км)
Погода в Электроуглях (Московская область, Россия) (63 км)
Погода в Электростали (Московская область, Россия) (63 км)

Пояснения к столбцам:

Ветер - указаны скорость ветра в м/с - средняя за 10 мин, порывы в срок и между сроками (в фигурных скобках) и направление, откуда дует ветер: С - северный, СВ - северо-восточный, В - восточный, ЮВ - юго-восточный, Ю - южный, ЮЗ - юго-западный, З - западный, СЗ - северо-западный.
Видимость - горизонтальная дальность видимости в метрах или километрах. При видимости от 1 до 10 км при отсутствии осадков обычно наблюдается дымка, при ухудшении видимости до 1 км и менее - туман. В сухую погоду видимость может ухудшаться дымом, пылью или мглою.
Явления - указаны атмосферные явления, наблюдавшиеся в срок или в последний час перед сроком; фигурными скобками обозначены явления, наблюдавшиеся между сроками (за 1-3 часа до срока); квадратными скобками обозначены град или гололедные отложения с указанием их диаметра в мм.
Облачность - указаны через наклонную черту общая и нижняя облачность в баллах и высота нижней границы облаков в метрах; квадратными скобками обозначены формы облаков: Ci - перистые, Cs - перисто-слоистые, Cc - перисто-кучевые, Ac - высококучевые, As - высокослоистые, Sc - слоисто-кучевые, Ns - слоисто-дождевые, Cu - кучевые, Cb - кучево-дождевые. Подробнее классификацию облаков см. в Атласе облаков (PDF).
T - Температура воздуха - температура, измеренная на высоте 2 м над землей.
Td - Температура точки росы - температура, при понижении до которой содержащийся в воздухе водяной пар достигнет насыщения.
f - Относительная влажность воздуха - влажноcть воздуха, измеренная на высоте 2 м над землей.
Te - Эффективная температура - температура, которую ощущает одетый по сезону человек в тени. Характеристика душности погоды. При расчете учитывается влияние влажности воздуха и скорости ветра на теплоощущения человека.
Tes - Эффективная температура на солнце - температура, которую ощущает человек, с поправкой на солнечный нагрев. Характеристика знойности погоды. Зависит от высоты солнца над горизонтом, облачности и скорости ветра. Ночью, в пасмурную погоду, а также при ветре 12 м/с и более поправка равна нулю.
P - Атмосферное давление - приведенное к уровню моря атмосферное давление.
Po - Атмосферное давление - измеренное на уровне метеостанции атмосферное давление.
Tmin - Минимальная температура - минимум температуры воздуха на высоте 2 м над землей.
Tmax - Максимальная температура - максимум температуры воздуха на высоте 2 м над землей.
R - Количество осадков - Количество выпавших осадков за период времени, мм. При наведении курсора мыши на число - период времени, за который выпало указанное количество осадков.
R24 - Количество осадков - Количество выпавших осадков за 24 часа, мм.
S - Снежный покров - Высота снежного покрова, см. При наведении курсора мыши на число - состояние снежного покрова и степень покрытия местности в баллах.